PAV513H LEZL-LECO

Flight info

Callsign PAV513H
Flight time N/A
Altitude 24000
Route HIJ M30 ZMR/N0409F330 N733 DESAT/N0386F250 N733 FORNO
Aircraft C525/L-SDFGRWY/S

Departure

Time 2026-04-30 15:11
Airport Seville Airport (LEZL)

Arrival

Time N/A
Airport A Coruña Airport (LECO)
Time Latitude Longitude Altitude Speed Heading
2026-04-30 14:41 37.42039 -5.90481 81 ft 0 kts 269°
2026-04-30 15:00 37.42039 -5.90487 81 ft 2 kts 270°
2026-04-30 15:00 37.41983 -5.90517 80 ft 8 kts 135°
2026-04-30 15:01 37.41977 -5.90353 82 ft 8 kts 83°
2026-04-30 15:01 37.41978 -5.90265 83 ft 10 kts 89°
2026-04-30 15:01 37.41979 -5.90043 83 ft 13 kts 90°
2026-04-30 15:02 37.41979 -5.89914 84 ft 14 kts 89°
2026-04-30 15:02 37.41980 -5.89792 86 ft 12 kts 90°
2026-04-30 15:03 37.41981 -5.89598 86 ft 11 kts 89°
2026-04-30 15:04 37.41982 -5.89487 86 ft 13 kts 89°
2026-04-30 15:04 37.41981 -5.89241 86 ft 16 kts 89°
2026-04-30 15:05 37.41983 -5.89090 86 ft 17 kts 89°
2026-04-30 15:06 37.41984 -5.88908 86 ft 19 kts 92°
2026-04-30 15:06 37.41985 -5.88563 89 ft 20 kts 89°
2026-04-30 15:07 37.41987 -5.88292 93 ft 0 kts 89°
2026-04-30 15:09 37.41985 -5.88203 95 ft 12 kts 90°
2026-04-30 15:09 37.41991 -5.87846 99 ft 26 kts 85°
2026-04-30 15:10 37.41893 -5.87428 102 ft 24 kts 182°
2026-04-30 15:11 37.41793 -5.88678 90 ft 114 kts 271°
2026-04-30 15:11 37.41833 -5.90780 1022 ft 125 kts 272°
2026-04-30 15:12 37.42985 -5.93676 2565 ft 133 kts 327°
2026-04-30 15:13 37.44309 -5.94953 3645 ft 123 kts 319°
2026-04-30 15:14 37.46784 -5.97873 5440 ft 126 kts 315°
2026-04-30 15:14 37.48908 -5.99720 6682 ft 135 kts
2026-04-30 15:16 37.53564 -5.98372 8697 ft 142 kts 12°
2026-04-30 15:17 37.57508 -5.97219 10196 ft 148 kts 12°
2026-04-30 15:18 37.62596 -5.95770 12008 ft 152 kts 12°
2026-04-30 15:19 37.65710 -5.94915 13039 ft 154 kts 12°